Regional Weather Roundup
Issued by NWS Pendleton, OR

Home | Current Version | Previous Version | Text Only | Print | Product List | Glossary On
Versions: 1 2 3 4 5 6 7 8 9 10 11 12 13 14 15 16 17 18 19 20 21 22 23 24 25 26 27 28 29 30 31 32 33 34 35 36 37 38 39 40 41 42 43 44 45 46 47 48 49 50
000
ASUS46 KPDT 060910
RWRPDT
PENDLETON REGIONAL WEATHER ROUNDUP
NATIONAL WEATHER SERVICE PENDLETON OREGON
100 AM PST FRI MAR 6 2015

NOTE: FAIR INDICATES FEW OR NO CLOUDS BELOW 12,000 FEET WITH NO
SIGNIFICANT WEATHER AND/OR OBSTRUCTIONS TO VISIBILITY.

# INDICATES UNOFFICIAL STATION AND DATA

WAZ520-061010-
EAST SLOPES OF WASHINGTON CASCADES

CITY            SKY/WX      TMP DP  RH  WIND    PRES   REMARKS
#BUMPING DAM    N/A         32  N/A N/A CALM    N/A
#CLE ELUM HS    N/A         35  27  72  CALM    30.27R
#CLE ELUM LAKE  N/A         42  30  62  CALM    30.33F
#CLIFFDEL 2NW   N/A         35  25  66  CALM    N/A
#EASTON DOT     N/A         35  26  69  CALM    N/A
#GLENWOOD       N/A         27  25  92  CALM    30.41R
#MANASTASH CYN  N/A         36  25  64  CALM    30.27S
#NELSON         N/A         35  29  78  CALM    30.39S
#NELSON 3SW     N/A         36  31  82  CALM    30.57F
#NILE           N/A         33  28  82  W1      29.67R
#PEOH POINT     N/A         41  22  46  SW9     N/A
#RONALD 2NW     N/A         41  28  59  N1      30.15F
#SNOWDEN        N/A         34  17  49  CALM    N/A
#SOUTH BLEWITT  N/A         32  26  78  CALM    N/A
#TEANAWAY 4NE   N/A         35  28  75  CALM    N/A
#TROUT LAKE 1NE N/A         34  29  82  CALM    30.40R
$$

WAZ521-061010-
SIMCOE HIGHLANDS

CITY            SKY/WX      TMP DP  RH  WIND    PRES   REMARKS
#BICKLETON HS   N/A         37  19  48  CALM    N/A
#SATUS PASS DOT N/A         36  20  52  CALM    N/A
#CENTERVILLE 4W N/A         42  31  65  W1      30.08R
#CENTERVILLE 1SWN/A         32  27  82  CALM    30.35S
#GOLDENDALE     N/A         35  29  78  E3      N/A
#GOLDENDALE 1NE N/A         34  20  56  N7      N/A
#GOLDENDALE 5WNWN/A         N/A N/A N/A SE6     30.34R
#GOODNOE HILLS  N/A         45  31  58  NW3     N/A
#LYLE 6NE       N/A         42  32  67  CALM    30.34S
$$

WAZ026-061010-
KITTITAS VALLEY

CITY            SKY/WX      TMP DP  RH  WIND    PRES   REMARKS
ELLENSBURG AP   MOCLDY      38  28  67  E5      30.32S
#ELLENSBURG CWU N/A         41  30  65  CALM    30.30S
#ELLENSBURG 3NE N/A         36  29  75  NE1     30.31S
#ELLENSBURG 1E  N/A         35  27  72  CALM    N/A
#KITTITAS 4N    N/A         39  28  64  E1      28.63R
#KITTITAS 3S    N/A         31  27  85  CALM    30.36R
#THORP 6N       N/A         40  28  62  CALM    30.38R
$$

WAZ027-061010-
YAKIMA VALLEY

CITY            SKY/WX      TMP DP  RH  WIND    PRES   REMARKS
SUNNYSIDE AP    PTCLDY      30  24  78  CALM    30.36S
YAKIMA AIRPORT  MOCLDY      34  28  78  SW5     30.36R
YAKIMA-VAGABOND MOCLDY      37  28  70  S2      30.35R
#DONALD 2NE     N/A         40  22  48  CALM    29.19S
#MABTON         N/A         32  27  82  CALM    30.36R
#NACHES 2SW     N/A         45  30  55  W1      30.33S
#TERRACE HTS    N/A         34  28  78  CALM    30.35S
#WAPATO 4NE     N/A         40  22  48  CALM    29.19S
#WEST VALLEY    N/A         36  30  79  CALM    30.37R
#W YAKIMA       N/A         40  31  70  CALM    30.38R
#WHITE SWAN 5E  N/A         32  30  92  SW1     30.38S
#WILEY CITY 3W  N/A         34  27  75  CALM    30.35S
$$

WAZ028-061010-
LOWER COLUMBIA BASIN...WASHINGTON

CITY            SKY/WX      TMP DP  RH  WIND    PRES   REMARKS
PASCO           CLEAR       28  25  88  N3      30.38R
PROSSER AWOS    N/A         30  28  92  CALM    30.39S
RICHLAND AWOS   CLEAR       32  27  82  CALM    30.37R
#BASIN CITY 5SW N/A         30  24  78  E5      30.35S
#BENTON CITY    N/A         36  28  72  CALM    30.27S
#CONNELL 5N     N/A         28  23  81  NE2     30.38S
#CONNELL 5NW    N/A         30  24  78  NE1     30.35R
#ELTOPIA        N/A         34  26  72  CALM    30.34
#ELTOPIA 6NW    N/A         40  27  59  CALM    29.30S
#KAHLOTUS       N/A         34  25  69  S12     30.39R WCI 25
#KENNEWICK 3S   N/A         43  31  62  CALM    30.37S
#PASCO-BROADMOORN/A         34  25  69  CALM    30.30R
#PATERSON       N/A         38  28  67  CALM    30.37R
#PROSSER DOT    N/A         32  28  85  CALM    N/A
#PROSSER        N/A         44  27  51  CALM    30.37S
#SAGEMOOR 2W    N/A         32  25  75  S1      30.23R
#TOUCHET 2S     N/A         28  24  85  CALM    30.37R
#WEST PASCO     N/A         33  23  66  E1      30.38S
$$

WAZ029-061010-
FOOTHILLS OF THE BLUES...WASHINGTON

CITY            SKY/WX      TMP DP  RH  WIND    PRES   REMARKS
WALLA WALLA AP  PTCLDY      39  26  59  CALM    30.35R
#DAYTON SCHOOL  N/A         35  18  49  CALM    30.36R
#LOWDEN 2SE     N/A         30  26  85  CALM    30.33R
#PLEASANT VIEW 1N/A         40  25  55  CALM    30.42S
#PRESCOTT       N/A         33  28  82  CALM    30.38R
#SUDBURY        N/A         32  N/A N/A CALM    N/A
#WHITMAN COLLEGEN/A         47  27  45  CALM    30.41R
#WAITSBURG 5S   N/A         45  24  43  CALM    30.46R
#WAITSBURG 8N   N/A         30   9  41  CALM    30.24R
#WALLA WALLA 5E N/A         39  28  64  NE7     N/A
#WALLA WALLA U  N/A         37  28  70  CALM    30.37S
#WHITMAN MISSIONN/A         32  28  85  CALM    30.38S
$$

WAZ030-061010-
BLUE MOUNTAINS...WASHINGTON

CITY            SKY/WX      TMP DP  RH  WIND    PRES   REMARKS
#DIXIE 5SE      N/A         48  17  29  S7      30.27S
#SKI BLUEWOOD   N/A         32  21  63  SW1     30.32S
$$

ORZ009-041-WAZ024-061010-
COLUMBIA RIVER GORGE

CITY            SKY/WX      TMP DP  RH  WIND    PRES   REMARKS
HOOD RIVER AP   PTCLDY      36  30  79  CALM    30.37S
THE DALLES AP   PTCLDY      40  32  73  E3      30.38R
#ARLINGTON AIRPON/A         43  34  70  NW3     30.00S
#CELILO DOT     N/A         41  31  67  CALM    N/A
#MARYHILL       N/A         43  33  67  CALM    N/A
#MOSIER 1S      N/A         39  28  64  CALM    30.35R
#MURDOCK        N/A         42  36  79  CALM    30.40R
#RUFUS DOT      N/A         41  32  70  CALM    N/A

$$

ORZ510-061010-
NORTH CENTRAL OREGON

CITY            SKY/WX      TMP DP  RH  WIND    PRES   REMARKS
#CHENOWITH 1W   N/A         43  33  67  NW10    N/A
#COW CYN RST AREN/A         49  23  36  CALM    N/A
#DUFUR 9E       N/A         47  30  51  E2      30.40S
#GRASS VALLEY 1SN/A         41  29  62  S10     30.37F
#KENT DOT       N/A         42  22  45  SE6     N/A
#MAUPIN SCHOOL  N/A         40  30  67  CALM    30.37S
#MORO SCHOOL    N/A         35  32  89  SW2     30.35R
#SHANIKO 5WSW   N/A         48  18  30  NW1     N/A
#SHANIKO 4NW    N/A         49  23  36  W5      30.35S
#TYGH VALLEY 2NEN/A         37  30  75  CALM    30.38S
#WAPANITIA AIRPON/A         41  31  67  CALM    30.40S
#WASCO DOT      N/A         32  28  85  SE3     N/A
#WASCO 5NE      N/A         35  29  78  CALM    30.38S
$$

ORZ511-061010-
CENTRAL OREGON

CITY            SKY/WX      TMP DP  RH  WIND    PRES   REMARKS
BEND AIRPORT    PTCLDY      37  23  56  CALM    30.37R
MADRAS AIRPORT  CLEAR       34  28  78  SE6     30.38R
PRINEVILLE AP   PTCLDY      30  23  75  CALM    30.37S
REDMOND AIRPORT PTCLDY      30  22  72  SE6     30.36S
#BEND 6E        N/A         37  20  50  CALM    30.33S
#BEND 1SW       N/A         34  24  66  W2      N/A
#BEND-AWBREY    N/A         43  25  49  SE6     30.38S
#BEND-KIM LN    N/A         40  23  50  SW7     30.34R
#CROOKED RVR RANN/A         37  26  64  SE3     30.40R
#CULVER         N/A         36  26  67  CALM    30.32S
#LAKE BILLY CHINN/A         40  16  37  CALM    30.43R
#POWELL BUTTE   N/A         39  23  52  SW3     29.97R
#PRINEVILLE 3N  N/A         32  25  75  E2      30.38S
#WARM SPRINGS   N/A         37  31  79  CALM    30.33R

$$


ORZ509-061010-
EAST SLOPES OF OREGON CASCADES

CITY            SKY/WX      TMP DP  RH  WIND    PRES   REMARKS
#BLUE BOX PASS  N/A         44  -7  11  CALM    N/A
#CAMP SHERMAN   N/A         29  22  75  CALM    30.41R
#LA PINE DOT    N/A         27  16  63  CALM    N/A
#LA PINE 4NW    N/A         25  16  68  CALM    30.51S
#LAVA BUTTE DOT N/A         31  22  69  CALM    N/A
#MT BACHELOR-MIDN/A         35  -2  20  S7      N/A
#SISTERS AIRPOR N/A         27  24  88  CALM    30.17S
#SISTERS ODOT   N/A         28  N/A N/A CALM    N/A
#SISTERS 3N     N/A         27  12  53  CALM    30.37R
#SUNRIVER       N/A         27  22  81  CALM    30.34S
#TUMALO 3W      N/A         47  20  34  CALM    30.25S
#WANOGA BUTTE D N/A         42   8  24  CALM    N/A

$$

ORZ044-061010-
LOWER COLUMBIA BASIN...OREGON

CITY            SKY/WX      TMP DP  RH  WIND    PRES   REMARKS
HERMISTON       PTCLDY      28  24  85  SE5     30.35S
#BOARDMAN 8SW   N/A         39  33  79  CALM    30.37S
#IONE SCHOOL    N/A         39  25  57  CALM    30.33F
#IRRIGON 4NW    N/A         34  31  89  E1      N/A
#UMATILLA SCHOOLN/A         30  30  100 E2      30.42R
#UMATILLA       N/A         36  26  67  CALM    30.34S
$$

ORZ507-061010-
NORTHERN FOOTHILLS OF THE BLUES

CITY            SKY/WX      TMP DP  RH  WIND    PRES   REMARKS
PENDLETON AIRPT PTCLDY      40  26  57  SE10    30.34S
#ADAMS 3WNW     N/A         32  26  78  CALM    30.40S
#ATHENA         N/A         40  27  59  CALM    30.40S
#CAYUSE         N/A         46  29  51  E8      30.36R
#HELIX SCHOOL   N/A         29  24  81  CALM    30.40R
#HELIX 3N       N/A         40  26  57  S7      30.29S
#HOLDMAN 5SE    N/A         40  30  67  CALM    30.33S
#HOLDMAN 6E     N/A         41  27  57  W1      30.18S
#M-F FERNDALE   N/A         39  25  57  CALM    30.32S
#M-F GROVE ELEM N/A         45  24  43  CALM    30.32S
#M-FREEWATER 5SEN/A         45  27  49  NE2     30.33S
#PENDLETON DNTN N/A         32  17  53  E3      30.34S
#PDT AQUATIC CTRN/A         34  17  49  E2      30.34S
#PENDLETON 5NE  N/A         31  26  81  CALM    30.30R
#PDT SUNRIDGE   N/A         29  24  81  CALM    30.37S
#PENDLETON 7NW  N/A         37  27  67  CALM    25.30F
#PILOT ROCK     N/A         45  23  41  S5      30.35S
#TUTUILLA       N/A         29  25  85  CALM    30.39R
#UMAPINE 2E     N/A         40  29  64  CALM    30.32S
#WESTON SCHOOL  N/A         46  22  38  W2      30.33S

$$

ORZ508-061010-
SOUTHERN FOOTHILLS OF THE BLUES

CITY            SKY/WX      TMP DP  RH  WIND    PRES   REMARKS
LEXINGTON       PTCLDY      43  30  60  SE12    30.35S WCI 37
#AJAX           N/A         45  23  41  CALM    30.25S
#CONDON SCHOOL  N/A         41  26  55  CALM    30.28S
#CONDON 5W      N/A         47  23  38  NW3     30.31S
#FOSSIL SCHOOL  N/A         34  26  72  CALM    30.31S
#HEPPNER EOC    N/A         41  27  57  SE9     30.34S
#HEPPNER 4NE    N/A         44  27  51  S1      30.37S
#LEXINGTON 2SE  N/A         43  28  55  SE10    30.31S
#MIKKALO        N/A         39  27  62  NE5     30.33S
#OLEX 4N        N/A         39  32  76  S7      30.32S
#RUGGS 5NE      N/A         38  22  52  SE1     30.52S
#RUGGS 2SW      N/A         43  25  49  SW9     30.39S

$$

ORZ502-503-061010-
BLUE MOUNTAINS

CITY            SKY/WX      TMP DP  RH  WIND    PRES   REMARKS
MEACHAM         PTCLDY      25  20  81  CALM    30.35F
#BATTLE MTN DOT N/A         34  28  78  S2      N/A
#HEPPNER 15SE   N/A         33  23  66  CALM    30.28S
#LADD CYN SMT   N/A         31  19  61  SE9     N/A
#LADD CREEK ODOTN/A         33  22  63  SW7     N/A
#LONG CREEK HS  N/A         35  27  72  CALM    30.33S
#N POWDER DOT   N/A         26  23  88  CALM    N/A
#PIKES PEAK     N/A         47  21  35  S14     27.99S WCI 41
#TROY SCHOOL    N/A         31  25  78  CALM    30.30R
#UKIAH          N/A         25  22  88  CALM    30.55R
#WESTON 4E      N/A         44  25  47  SE7     30.32S
$$

ORZ505-061010-
JOHN DAY BASIN

CITY            SKY/WX      TMP DP  RH  WIND    PRES   REMARKS
JOHN DAY        PTCLDY      33  24  69  E8      30.39S
#JOHN DAY KJDY  N/A         31  28  88  CALM    30.35F
#DAYVILLE SCHOOLN/A         33  25  72  N1      30.35S
#MONUMENT HS    N/A         29  22  75  CALM    30.38R
#MT. VERNON 5SE N/A         37  22  54  CALM    30.33S
#SPRAY SCHOOL   N/A         29  N/A N/A CALM    N/A
#WINLOCK        N/A         35  20  54  CALM    30.43R
$$

ORZ506-061010-
OCHOCO AND JOHN DAY HIGHLANDS

CITY            SKY/WX      TMP DP  RH  WIND    PRES   REMARKS
#BUCK CREEK DOT N/A         44  44  100 CALM    N/A
#HORSE RIDGE DO N/A         27  22  81  CALM    N/A
#KEYES SMT DOT  N/A         37  20  50  CALM    N/A
#PAULINA SCHOOL N/A         28  24  85  CALM    30.31R
#PRAIRIE CITY   N/A         24  18  77  E1      30.63R
#SENECA         N/A         23  N/A N/A CALM    N/A
#SENECA 9NW     N/A         23  19  84  CALM    30.53R
$$

ORZ049-061010-
GRANDE RONDE VALLEY

CITY            SKY/WX      TMP DP  RH  WIND    PRES   REMARKS
LA GRANDE       PTCLDY      30  16  55  CALM    30.37R
#COVE           N/A         33  24  69  SE2     30.36S
#COVE SCHOOL    N/A         36  24  61  CALM    30.32S
#ELGIN 3N       N/A         26  14  60  CALM    30.34R
#ELGIN 1E       N/A         29  20  69  CALM    N/A
#IMBLER SCHOOL  N/A         29  21  72  CALM    30.32R
#ISLAND CITY 4N N/A         39  37  92  CALM    30.37S
#LADD CYN DOT   N/A         39  19  44  SE12    N/A    WCI 32
#UNION 1S       N/A         41  23  48  SE1     30.34S
$$

ORZ050-061010-
WALLOWA COUNTY

CITY            SKY/WX      TMP DP  RH  WIND    PRES   REMARKS
#ENTERPRISE HS  N/A         27  22  81  CALM    30.36R
#IMNAHA SCHOOL  N/A         34  25  69  S3      30.38R
#IMNAHA 10S     N/A         36  21  54  SW5     30.35R
#JOSEPH 3N      N/A         26  20  78  CALM    30.35S
#JOSEPH 3W      N/A         34  13  41  SW3     30.16S
#LOSTINE        N/A         26  21  81  CALM    30.28R
#MT HOWARD 8000 N/A         33   6  31  W3      30.35R
#PROMISE 1S     N/A         34  21  58  CALM    30.49F
#SHEEP RDG 7000 N/A         37   7  28  CALM    30.40S
#WALLOWA SCHOOL N/A         25  21  84  CALM    31.48R



$$



USA.gov is the U.S. government's official web portal to all federal, state and local government web resources and services.